Time,TemperatureF,DewpointF,PressureIn,WindDirection,WindDirectionDegrees,WindSpeedMPH,WindSpeedGustMPH,Humidity,HourlyPrecipIn,Conditions,Clouds,dailyrainin,SoftwareType,DateUTC
2013-04-23 00:03:00,48.0,34.0,-100.00,ENE,61,8.0,-999.0,57,-99.99,,,-99.99,,2013-04-23 04:03:00,
2013-04-23 00:12:00,48.0,34.0,-100.00,ENE,61,8.0,-999.0,57,-99.99,,,-99.99,,2013-04-23 04:12:00,
2013-04-23 00:23:00,48.0,34.0,-100.00,ENE,63,10.0,-999.0,58,-99.99,,,-99.99,,2013-04-23 04:23:00,
2013-04-23 00:33:00,48.0,34.0,-100.00,ENE,68,8.0,-999.0,59,-99.99,,,-99.99,,2013-04-23 04:33:00,
2013-04-23 00:43:00,48.0,34.0,-100.00,ENE,68,8.0,-999.0,59,-99.99,,,-99.99,,2013-04-23 04:43:00,
2013-04-23 00:53:00,47.0,35.0,-100.00,ENE,65,9.0,-999.0,60,-99.99,,,-99.99,,2013-04-23 04:53:00,
2013-04-23 01:02:00,47.0,35.0,-100.00,ENE,63,9.0,-999.0,61,-99.99,,,-99.99,,2013-04-23 05:02:00,
2013-04-23 01:12:00,47.0,35.0,-100.00,ENE,63,9.0,-999.0,61,-99.99,,,-99.99,,2013-04-23 05:12:00,
2013-04-23 01:22:00,47.0,36.0,-100.00,ENE,57,13.0,-999.0,64,-99.99,,,-99.99,,2013-04-23 05:22:00,
2013-04-23 01:32:00,47.0,36.0,-100.00,NE,56,11.0,-999.0,65,-99.99,,,-99.99,,2013-04-23 05:32:00,
2013-04-23 01:42:00,47.0,36.0,-100.00,NE,56,11.0,-999.0,65,-99.99,,,-99.99,,2013-04-23 05:42:00,
2013-04-23 01:52:00,47.0,36.0,-100.00,ENE,60,10.0,-999.0,66,-99.99,,,-99.99,,2013-04-23 05:52:00,
2013-04-23 02:02:00,46.0,36.0,-100.00,ENE,58,8.0,-999.0,67,-99.99,,,-99.99,,2013-04-23 06:02:00,
2013-04-23 02:12:00,46.0,36.0,-100.00,ENE,58,8.0,-999.0,67,-99.99,,,-99.99,,2013-04-23 06:12:00,
2013-04-23 02:22:00,46.0,37.0,-100.00,ENE,58,9.0,-999.0,68,-99.99,,,-99.99,,2013-04-23 06:22:00,
2013-04-23 02:33:00,46.0,37.0,-100.00,NE,51,8.0,-999.0,68,-99.99,,,-99.99,,2013-04-23 06:33:00,
2013-04-23 02:42:00,46.0,37.0,-100.00,NE,51,8.0,-999.0,68,-99.99,,,-99.99,,2013-04-23 06:42:00,
2013-04-23 02:52:00,46.0,37.0,-100.00,NE,48,7.0,-999.0,69,-99.99,,,-99.99,,2013-04-23 06:52:00,
2013-04-23 03:02:00,46.0,37.0,-100.00,NE,53,9.0,-999.0,71,-99.99,,,-99.99,,2013-04-23 07:02:00,
2013-04-23 03:11:00,46.0,37.0,-100.00,NE,53,9.0,-999.0,71,-99.99,,,-99.99,,2013-04-23 07:11:00,
2013-04-23 03:22:00,46.0,37.0,-100.00,NE,50,9.0,-999.0,71,-99.99,,,-99.99,,2013-04-23 07:22:00,
2013-04-23 03:32:00,46.0,37.0,-100.00,NE,53,7.0,-999.0,71,-99.99,,,-99.99,,2013-04-23 07:32:00,
2013-04-23 03:42:00,46.0,37.0,-100.00,NE,53,7.0,-999.0,71,-99.99,,,-99.99,,2013-04-23 07:42:00,
2013-04-23 03:52:00,46.0,38.0,-100.00,NE,50,6.0,-999.0,71,-99.99,,,-99.99,,2013-04-23 07:52:00,
2013-04-23 04:02:00,46.0,38.0,-100.00,ENE,57,9.0,-999.0,73,-99.99,,,-99.99,,2013-04-23 08:02:00,
2013-04-23 04:11:00,46.0,38.0,-100.00,ENE,57,9.0,-999.0,73,-99.99,,,-99.99,,2013-04-23 08:11:00,
2013-04-23 04:22:00,46.0,38.0,-100.00,ENE,66,8.0,-999.0,74,-99.99,,,-99.99,,2013-04-23 08:22:00,
2013-04-23 04:32:00,46.0,39.0,-100.00,ENE,59,7.0,-999.0,74,-99.99,,,-99.99,,2013-04-23 08:32:00,
2013-04-23 04:42:00,46.0,39.0,-100.00,ENE,59,7.0,-999.0,74,-99.99,,,-99.99,,2013-04-23 08:42:00,
2013-04-23 04:52:00,46.0,39.0,-100.00,NE,49,7.0,-999.0,74,-99.99,,,-99.99,,2013-04-23 08:52:00,
2013-04-23 05:02:00,46.0,39.0,-100.00,NE,53,7.0,-999.0,75,-99.99,,,-99.99,,2013-04-23 09:02:00,
2013-04-23 05:11:00,46.0,39.0,-100.00,NE,53,7.0,-999.0,75,-99.99,,,-99.99,,2013-04-23 09:11:00,
2013-04-23 05:22:00,46.0,39.0,-100.00,NNE,27,7.0,-999.0,73,-99.99,,,-99.99,,2013-04-23 09:22:00,
2013-04-23 05:33:00,46.0,39.0,-100.00,NE,48,8.0,-999.0,74,-99.99,,,-99.99,,2013-04-23 09:33:00,
2013-04-23 05:43:00,46.0,39.0,-100.00,NE,48,8.0,-999.0,74,-99.99,,,-99.99,,2013-04-23 09:43:00,
2013-04-23 05:53:00,46.0,38.0,-100.00,NNE,31,8.0,-999.0,73,-99.99,,,-99.99,,2013-04-23 09:53:00,
2013-04-23 06:03:00,46.0,38.0,-100.00,NNE,28,7.0,-999.0,73,-99.99,,,-99.99,,2013-04-23 10:03:00,
2013-04-23 06:13:00,46.0,38.0,-100.00,NNE,28,7.0,-999.0,73,-99.99,,,-99.99,,2013-04-23 10:13:00,
2013-04-23 06:23:00,46.0,38.0,-100.00,NE,37,7.0,-999.0,74,-99.99,,,-99.99,,2013-04-23 10:23:00,
2013-04-23 06:33:00,46.0,39.0,-100.00,NNE,28,7.0,-999.0,75,-99.99,,,-99.99,,2013-04-23 10:33:00,
2013-04-23 06:42:00,46.0,39.0,-100.00,NNE,28,7.0,-999.0,75,-99.99,,,-99.99,,2013-04-23 10:42:00,
2013-04-23 06:53:00,46.0,39.0,-100.00,NNE,33,6.0,-999.0,75,-99.99,,,-99.99,,2013-04-23 10:53:00,
2013-04-23 07:03:00,46.0,39.0,-100.00,NNE,19,6.0,-999.0,74,-99.99,,,-99.99,,2013-04-23 11:03:00,
2013-04-23 07:12:00,46.0,39.0,-100.00,NNE,19,6.0,-999.0,74,-99.99,,,-99.99,,2013-04-23 11:12:00,
2013-04-23 07:21:00,46.0,38.0,-100.00,NE,42,7.0,-999.0,75,-99.99,,,-99.99,,2013-04-23 11:21:00,
2013-04-23 07:32:00,46.0,39.0,-100.00,NE,36,7.0,-999.0,75,-99.99,,,-99.99,,2013-04-23 11:32:00,
2013-04-23 07:43:00,46.0,39.0,-100.00,NE,36,7.0,-999.0,75,-99.99,,,-99.99,,2013-04-23 11:43:00,
2013-04-23 07:53:00,46.0,39.0,-100.00,NE,38,8.0,-999.0,76,-99.99,,,-99.99,,2013-04-23 11:53:00,
2013-04-23 08:02:00,46.0,39.0,-100.00,NNE,32,8.0,-999.0,78,-99.99,,,-99.99,,2013-04-23 12:02:00,
2013-04-23 08:12:00,46.0,39.0,-100.00,NNE,32,8.0,-999.0,78,-99.99,,,-99.99,,2013-04-23 12:12:00,
2013-04-23 08:22:00,46.0,40.0,-100.00,NNE,27,6.0,-999.0,79,-99.99,,,-99.99,,2013-04-23 12:22:00,
2013-04-23 08:32:00,46.0,40.0,-100.00,NE,44,7.0,-999.0,80,-99.99,,,-99.99,,2013-04-23 12:32:00,
2013-04-23 08:42:00,46.0,40.0,-100.00,NE,44,7.0,-999.0,80,-99.99,,,-99.99,,2013-04-23 12:42:00,
2013-04-23 08:52:00,46.0,40.0,-100.00,NE,44,9.0,-999.0,80,-99.99,,,-99.99,,2013-04-23 12:52:00,
2013-04-23 09:01:00,46.0,40.0,-100.00,NE,46,7.0,-999.0,79,-99.99,,,-99.99,,2013-04-23 13:01:00,
2013-04-23 09:11:00,46.0,40.0,-100.00,NE,46,7.0,-999.0,79,-99.99,,,-99.99,,2013-04-23 13:11:00,
2013-04-23 09:22:00,46.0,40.0,-100.00,NE,45,8.0,-999.0,78,-99.99,,,-99.99,,2013-04-23 13:22:00,
2013-04-23 09:32:00,46.0,39.0,-100.00,NE,51,8.0,-999.0,77,-99.99,,,-99.99,,2013-04-23 13:32:00,
2013-04-23 09:42:00,46.0,39.0,-100.00,NE,51,8.0,-999.0,77,-99.99,,,-99.99,,2013-04-23 13:42:00,
2013-04-23 09:52:00,46.0,39.0,-100.00,NE,56,8.0,-999.0,75,-99.99,,,-99.99,,2013-04-23 13:52:00,
2013-04-23 10:02:00,47.0,39.0,-100.00,NE,55,7.0,-999.0,74,-99.99,,,-99.99,,2013-04-23 14:02:00,
2013-04-23 10:11:00,47.0,39.0,-100.00,NE,55,7.0,-999.0,74,-99.99,,,-99.99,,2013-04-23 14:11:00,
2013-04-23 10:22:00,47.0,39.0,-100.00,NE,42,7.0,-999.0,73,-99.99,,,-99.99,,2013-04-23 14:22:00,
2013-04-23 10:32:00,47.0,39.0,-100.00,ENE,72,8.0,-999.0,72,-99.99,,,-99.99,,2013-04-23 14:32:00,
2013-04-23 10:42:00,47.0,39.0,-100.00,ENE,72,8.0,-999.0,72,-99.99,,,-99.99,,2013-04-23 14:42:00,
2013-04-23 10:52:00,47.0,38.0,-100.00,ENE,69,8.0,-999.0,71,-99.99,,,-99.99,,2013-04-23 14:52:00,
2013-04-23 11:01:00,47.0,38.0,-100.00,ENE,69,8.0,-999.0,71,-99.99,,,-99.99,,2013-04-23 15:01:00,
2013-04-23 11:12:00,48.0,39.0,-100.00,ENE,62,7.0,-999.0,69,-99.99,,,-99.99,,2013-04-23 15:12:00,
2013-04-23 11:21:00,49.0,39.0,-100.00,NE,43,7.0,-999.0,68,-99.99,,,-99.99,,2013-04-23 15:21:00,
2013-04-23 11:32:00,49.0,39.0,-100.00,NE,52,8.0,-999.0,67,-99.99,,,-99.99,,2013-04-23 15:32:00,
2013-04-23 11:43:00,49.0,39.0,-100.00,NE,52,8.0,-999.0,67,-99.99,,,-99.99,,2013-04-23 15:43:00,
2013-04-23 11:53:00,50.0,39.0,-100.00,NE,56,7.0,-999.0,65,-99.99,,,-99.99,,2013-04-23 15:53:00,
2013-04-23 12:03:00,50.0,38.0,-100.00,ENE,76,7.0,-999.0,63,-99.99,,,-99.99,,2013-04-23 16:03:00,
2013-04-23 12:12:00,50.0,38.0,-100.00,ENE,76,7.0,-999.0,63,-99.99,,,-99.99,,2013-04-23 16:12:00,
2013-04-23 12:23:00,51.0,39.0,-100.00,ENE,74,6.0,-999.0,62,-99.99,,,-99.99,,2013-04-23 16:23:00,
2013-04-23 12:34:00,51.0,38.0,-100.00,ENE,60,4.0,-999.0,61,-99.99,,,-99.99,,2013-04-23 16:34:00,
2013-04-23 12:43:00,51.0,38.0,-100.00,ENE,60,4.0,-999.0,61,-99.99,,,-99.99,,2013-04-23 16:43:00,
2013-04-23 12:53:00,51.0,38.0,-100.00,ENE,63,5.0,-999.0,59,-99.99,,,-99.99,,2013-04-23 16:53:00,
2013-04-23 13:02:00,52.0,38.0,-100.00,East,79,4.0,-999.0,59,-99.99,,,-99.99,,2013-04-23 17:02:00,
2013-04-23 13:12:00,52.0,38.0,-100.00,East,79,4.0,-999.0,59,-99.99,,,-99.99,,2013-04-23 17:12:00,
2013-04-23 13:22:00,52.0,38.0,-100.00,ENE,73,3.0,-999.0,57,-99.99,,,-99.99,,2013-04-23 17:22:00,
2013-04-23 13:33:00,53.0,38.0,-100.00,NNE,19,3.0,-999.0,56,-99.99,,,-99.99,,2013-04-23 17:33:00,
2013-04-23 13:42:00,53.0,38.0,-100.00,NNE,19,3.0,-999.0,56,-99.99,,,-99.99,,2013-04-23 17:42:00,
2013-04-23 13:53:00,53.0,38.0,-100.00,NNE,12,4.0,-999.0,56,-99.99,,,-99.99,,2013-04-23 17:53:00,
2013-04-23 14:02:00,53.0,38.0,-100.00,NNW,339,4.0,-999.0,55,-99.99,,,-99.99,,2013-04-23 18:02:00,
2013-04-23 14:12:00,53.0,38.0,-100.00,NNW,339,4.0,-999.0,55,-99.99,,,-99.99,,2013-04-23 18:12:00,
2013-04-23 14:22:00,54.0,38.0,-100.00,North,350,4.0,-999.0,55,-99.99,,,-99.99,,2013-04-23 18:22:00,
2013-04-23 14:32:00,54.0,38.0,-100.00,NNW,334,4.0,-999.0,53,-99.99,,,-99.99,,2013-04-23 18:32:00,
2013-04-23 14:42:00,54.0,38.0,-100.00,NNW,334,4.0,-999.0,53,-99.99,,,-99.99,,2013-04-23 18:42:00,
2013-04-23 14:52:00,55.0,38.0,-100.00,North,6,5.0,-999.0,52,-99.99,,,-99.99,,2013-04-23 18:52:00,
2013-04-23 15:02:00,55.0,38.0,-100.00,NNW,347,4.0,-999.0,52,-99.99,,,-99.99,,2013-04-23 19:02:00,
2013-04-23 15:11:00,55.0,38.0,-100.00,NNW,347,4.0,-999.0,52,-99.99,,,-99.99,,2013-04-23 19:11:00,
2013-04-23 15:22:00,56.0,38.0,-100.00,WNW,301,4.0,-999.0,51,-99.99,,,-99.99,,2013-04-23 19:22:00,
2013-04-23 15:32:00,56.0,39.0,-100.00,NW,314,5.0,-999.0,51,-99.99,,,-99.99,,2013-04-23 19:32:00,
2013-04-23 15:42:00,56.0,39.0,-100.00,NW,314,5.0,-999.0,51,-99.99,,,-99.99,,2013-04-23 19:42:00,
2013-04-23 15:52:00,57.0,39.0,-100.00,WNW,302,5.0,-999.0,50,-99.99,,,-99.99,,2013-04-23 19:52:00,
2013-04-23 16:02:00,57.0,39.0,-100.00,ENE,61,5.0,-999.0,50,-99.99,,,-99.99,,2013-04-23 20:02:00,
2013-04-23 16:11:00,57.0,39.0,-100.00,ENE,61,5.0,-999.0,50,-99.99,,,-99.99,,2013-04-23 20:11:00,
2013-04-23 16:22:00,58.0,39.0,-100.00,NE,45,6.0,-999.0,49,-99.99,,,-99.99,,2013-04-23 20:22:00,
2013-04-23 16:32:00,58.0,39.0,-100.00,NE,35,5.0,-999.0,48,-99.99,,,-99.99,,2013-04-23 20:32:00,
2013-04-23 16:42:00,58.0,39.0,-100.00,NE,35,5.0,-999.0,48,-99.99,,,-99.99,,2013-04-23 20:42:00,
2013-04-23 16:52:00,58.0,39.0,-100.00,East,86,5.0,-999.0,48,-99.99,,,-99.99,,2013-04-23 20:52:00,
2013-04-23 17:02:00,58.0,39.0,-100.00,ESE,105,7.0,-999.0,48,-99.99,,,-99.99,,2013-04-23 21:02:00,
2013-04-23 17:12:00,58.0,39.0,-100.00,ESE,105,7.0,-999.0,48,-99.99,,,-99.99,,2013-04-23 21:12:00,
2013-04-23 17:22:00,59.0,39.0,-100.00,ESE,113,5.0,-999.0,47,-99.99,,,-99.99,,2013-04-23 21:22:00,
2013-04-23 17:33:00,59.0,39.0,-100.00,NE,54,5.0,-999.0,47,-99.99,,,-99.99,,2013-04-23 21:33:00,
2013-04-23 17:43:00,59.0,39.0,-100.00,NE,54,5.0,-999.0,47,-99.99,,,-99.99,,2013-04-23 21:43:00,
2013-04-23 17:53:00,59.0,39.0,-100.00,ENE,65,5.0,-999.0,47,-99.99,,,-99.99,,2013-04-23 21:53:00,
2013-04-23 18:03:00,60.0,39.0,-100.00,East,91,4.0,-999.0,46,-99.99,,,-99.99,,2013-04-23 22:03:00,
2013-04-23 18:12:00,60.0,39.0,-100.00,East,91,4.0,-999.0,46,-99.99,,,-99.99,,2013-04-23 22:12:00,
2013-04-23 18:22:00,60.0,39.0,-100.00,NE,40,3.0,-999.0,45,-99.99,,,-99.99,,2013-04-23 22:22:00,
2013-04-23 18:33:00,60.0,39.0,-100.00,ENE,77,7.0,-999.0,46,-99.99,,,-99.99,,2013-04-23 22:33:00,
2013-04-23 18:42:00,60.0,39.0,-100.00,ENE,77,7.0,-999.0,46,-99.99,,,-99.99,,2013-04-23 22:42:00,
2013-04-23 18:52:00,60.0,39.0,-100.00,ENE,77,5.0,-999.0,46,-99.99,,,-99.99,,2013-04-23 22:52:00,
2013-04-23 19:03:00,59.0,39.0,-100.00,NE,49,4.0,-999.0,46,-99.99,,,-99.99,,2013-04-23 23:03:00,
2013-04-23 19:12:00,59.0,39.0,-100.00,NE,49,4.0,-999.0,46,-99.99,,,-99.99,,2013-04-23 23:12:00,
2013-04-23 19:22:00,60.0,39.0,-100.00,ENE,57,3.0,-999.0,46,-99.99,,,-99.99,,2013-04-23 23:22:00,
2013-04-23 19:32:00,60.0,39.0,-100.00,ENE,70,2.0,-999.0,45,-99.99,,,-99.99,,2013-04-23 23:32:00,
2013-04-23 19:42:00,60.0,39.0,-100.00,ENE,70,2.0,-999.0,45,-99.99,,,-99.99,,2013-04-23 23:42:00,
2013-04-23 19:52:00,60.0,39.0,-100.00,North,1,2.0,-999.0,45,-99.99,,,-99.99,,2013-04-23 23:52:00,
2013-04-23 20:02:00,59.0,39.0,-100.00,ENE,68,3.0,-999.0,46,-99.99,,,-99.99,,2013-04-24 00:02:00,
2013-04-23 20:11:00,59.0,39.0,-100.00,ENE,68,3.0,-999.0,46,-99.99,,,-99.99,,2013-04-24 00:11:00,
2013-04-23 20:22:00,59.0,39.0,-100.00,ENE,57,3.0,-999.0,46,-99.99,,,-99.99,,2013-04-24 00:22:00,
2013-04-23 20:32:00,58.0,40.0,-100.00,ESE,123,8.0,-999.0,52,-99.99,,,-99.99,,2013-04-24 00:32:00,
2013-04-23 20:42:00,58.0,40.0,-100.00,ESE,123,8.0,-999.0,52,-99.99,,,-99.99,,2013-04-24 00:42:00,
2013-04-23 20:52:00,56.0,41.0,-100.00,ESE,114,10.0,-999.0,55,-99.99,,,-99.99,,2013-04-24 00:52:00,
2013-04-23 21:02:00,56.0,41.0,-100.00,ESE,120,10.0,-999.0,57,-99.99,,,-99.99,,2013-04-24 01:02:00,
2013-04-23 21:11:00,56.0,41.0,-100.00,ESE,120,10.0,-999.0,57,-99.99,,,-99.99,,2013-04-24 01:11:00,
2013-04-23 21:21:00,55.0,41.0,-100.00,ESE,119,8.0,-999.0,58,-99.99,,,-99.99,,2013-04-24 01:21:00,
2013-04-23 21:32:00,55.0,41.0,-100.00,ESE,118,5.0,-999.0,58,-99.99,,,-99.99,,2013-04-24 01:32:00,
2013-04-23 21:42:00,55.0,41.0,-100.00,ESE,118,5.0,-999.0,58,-99.99,,,-99.99,,2013-04-24 01:42:00,
2013-04-23 21:52:00,55.0,41.0,-100.00,SE,138,5.0,-999.0,58,-99.99,,,-99.99,,2013-04-24 01:52:00,
2013-04-23 22:02:00,55.0,41.0,-100.00,SE,134,6.0,-999.0,59,-99.99,,,-99.99,,2013-04-24 02:02:00,
2013-04-23 22:18:00,55.0,41.0,-100.00,SE,134,6.0,-999.0,59,-99.99,,,-99.99,,2013-04-24 02:18:00,
2013-04-23 22:30:00,55.0,41.0,-100.00,SE,135,5.0,-999.0,59,-99.99,,,-99.99,,2013-04-24 02:30:00,
2013-04-23 22:40:00,54.0,41.0,-100.00,SE,135,6.0,-999.0,60,-99.99,,,-99.99,,2013-04-24 02:40:00,
2013-04-23 22:49:00,54.0,41.0,-100.00,SE,135,6.0,-999.0,60,-99.99,,,-99.99,,2013-04-24 02:49:00,
2013-04-23 23:01:00,54.0,41.0,-100.00,ESE,116,5.0,-999.0,60,-99.99,,,-99.99,,2013-04-24 03:01:00,
2013-04-23 23:11:00,54.0,41.0,-100.00,ESE,114,5.0,-999.0,61,-99.99,,,-99.99,,2013-04-24 03:11:00,
2013-04-23 23:18:00,54.0,41.0,-100.00,ESE,114,5.0,-999.0,61,-99.99,,,-99.99,,2013-04-24 03:18:00,
2013-04-23 23:31:00,54.0,41.0,-100.00,ESE,116,4.0,-999.0,61,-99.99,,,-99.99,,2013-04-24 03:31:00,
2013-04-23 23:50:00,54.0,41.0,-100.00,ESE,108,4.0,-999.0,62,-99.99,,,-99.99,,2013-04-24 03:50:00,